Dewpoint
62 62 62 61 61 61 63 64 66 67 70 70 70 70 71 70 72 72 73 73 71 71 71 71 70 71 71 68 67 69 72 72 70 71 70 70 73 74 75 74 76 76 76 76 76 74 75 74 75 75 74 74 75 74 73 73 73 74 73 73 70 70 67 65 64 64 63 61 65 62 64 64 63 66 64 62 61 60 61 62 61 63 64 66 67
62 62 62 62 62 62 64 65 67 68 70 71 70 70 71 70 71 71 72 73 72 71 71 72 73 70 70 69 68 68 71 71 72 73 71 73 76 77 76 75 75 75 75 76 75 74 74 73 74 74 74 75 75 74 74 74 74 73 72 73 71 68 66 64 64 62 61 60 60 60 60 62 65 61 58 57 58 58 59 62 64 59 58 61 64
61 61 61 61 62 63 65 65 66 67 68 69 70 71 71 71 72 73 72 72 73 73 72 73 73 73 71 70 70 69 71 72 71 72 73 71 73 75 76 76 75 75 75 75 74 73 74 73 74 74 75 75 75 74 74 74 74 73 73 71 69 68 66 65 68 67 60 61 64 62 59 56 62 60 58 57 54 55 56 56 58 55 57 61 64
61 61 59 60 63 65 65 66 67 66 68 68 68 70 71 73 73 73 73 72 73 74 74 74 74 75 74 74 73 72 72 74 75 74 74 73 72 73 76 76 75 75 75 73 74 74 74 74 74 74 74 75 75 74 74 74 75 73 72 72 72 67 63 63 65 67 67 63 61 61 61 56 56 60 60 57 54 53 54 53 55 56 58 62 65
62 61 60 61 63 64 66 67 66 66 66 68 67 68 68 71 73 74 73 72 73 75 74 75 74 74 75 76 75 75 74 74 73 71 72 73 72 72 74 75 75 75 74 74 73 74 75 74 74 74 74 74 74 73 74 72 73 73 73 74 72 69 63 62 65 64 67 69 66 62 59 60 59 57 54 58 54 53 53 54 56 57 56 61 60
63 61 61 61 63 65 66 67 66 65 66 68 67 66 68 70 73 74 73 72 73 75 75 75 74 73 74 73 73 72 72 72 71 71 70 69 69 71 73 73 74 75 75 75 74 74 74 75 75 74 73 73 73 73 73 71 72 73 73 73 72 72 71 63 61 66 65 70 68 64 67 63 63 61 58 56 62 56 55 54 57 56 56 59 63
62 62 61 59 63 64 65 66 66 65 65 66 66 67 68 70 73 74 73 73 73 75 75 75 74 74 74 72 72 71 71 71 73 71 71 71 72 72 74 74 75 73 73 75 74 74 75 74 75 74 73 73 74 73 72 71 71 72 74 73 73 73 72 68 65 63 67 66 62 62 64 64 62 62 61 60 58 59 58 54 55 56 55 55 55
61 62 61 61 62 63 64 65 65 64 64 65 65 66 70 72 73 74 74 73 74 75 75 75 74 73 74 73 72 72 69 71 73 74 73 74 74 73 72 72 74 74 74 74 75 74 74 74 75 74 73 73 72 72 72 72 73 74 74 74 75 74 73 70 68 65 63 65 66 65 64 65 66 62 62 61 61 60 57 55 55 55 56 55 56
62 61 60 60 62 62 63 64 64 64 64 64 65 66 70 72 74 74 74 74 74 75 75 75 75 74 74 73 73 73 72 72 73 73 73 74 74 74 75 72 73 74 74 73 74 74 74 74 75 75 73 73 73 72 72 72 73 75 74 75 74 74 73 72 72 69 65 64 67 69 66 64 61 62 63 61 61 60 55 57 58 57 57 58 59
62 62 61 60 61 62 62 63 63 63 64 64 65 65 68 72 74 74 74 73 74 76 75 75 75 75 74 74 74 74 74 74 73 74 75 75 75 75 75 74 71 71 72 74 74 74 74 74 74 74 73 72 72 74 73 74 74 74 74 74 75 74 74 71 71 70 68 67 67 68 69 66 66 63 60 59 59 62 58 55 56 57 59 58 60
62 62 62 61 61 62 61 62 63 64 65 65 64 64 66 70 73 74 74 73 74 75 75 75 75 75 75 75 75 75 75 75 75 75 75 76 75 74 74 73 72 71 71 72 72 73 74 74 73 73 74 74 74 74 74 72 71 71 72 74 75 75 73 73 70 70 70 69 67 68 67 63 64 63 64 62 61 60 59 56 56 56 56 57 60
62 61 62 61 63 63 62 63 64 65 65 65 64 64 66 69 71 73 73 74 74 74 74 74 74 75 75 75 75 75 76 74 75 74 75 75 74 73 73 72 72 72 73 71 72 70 73 73 74 74 74 74 73 73 73 72 72 72 72 73 74 74 75 73 72 71 69 69 67 64 63 62 64 63 61 64 62 62 63 60 58 61 60 58 58
63 62 62 61 61 62 62 63 66 67 67 66 64 64 66 69 71 72 73 73 74 73 73 74 74 74 75 75 75 75 76 75 75 75 75 75 74 74 74 72 72 72 72 70 70 71 73 74 74 73 74 74 75 75 74 74 74 72 73 71 73 74 73 74 72 72 69 68 66 64 63 63 63 63 62 61 60 63 63 58 58 56 58 59 61
63 62 61 62 62 62 63 64 66 67 67 67 65 66 67 67 71 71 73 73 73 73 73 73 73 74 75 75 75 75 75 75 74 73 73 74 74 74 72 71 72 71 71 71 71 71 71 72 74 74 75 76 76 76 75 75 75 74 73 73 72 73 75 74 73 72 72 70 67 66 65 62 62 62 63 62 60 59 60 60 64 61 56 56 62
64 63 62 62 62 64 64 64 66 67 67 66 67 67 69 69 72 73 73 73 73 73 73 74 73 74 74 74 75 75 74 73 73 73 74 73 72 73 74 72 71 73 72 74 73 72 72 74 73 73 74 76 76 76 74 75 76 76 75 74 74 75 74 74 74 71 68 69 69 67 66 65 63 64 62 62 63 62 62 63 64 63 59 57 58
64 64 63 63 64 65 65 65 66 67 68 66 67 68 69 71 73 73 73 73 73 73 73 73 73 73 74 74 74 75 75 74 73 75 75 74 74 74 75 75 73 73 74 75 73 73 73 73 74 73 75 75 75 76 76 75 76 75 76 75 74 72 75 75 73 71 70 70 69 70 69 64 65 63 65 64 64 65 65 66 66 66 64 60 60
65 65 64 64 64 65 65 66 65 66 66 67 69 70 72 72 73 73 73 73 72 74 73 73 73 73 74 73 73 73 73 73 71 72 70 72 74 74 72 73 74 74 73 73 74 74 75 74 74 73 75 76 76 76 76 77 79 75 75 75 75 73 75 75 74 73 72 69 69 69 68 67 67 69 67 66 68 69 67 66 65 64 68 64 63
69 66 68 67 65 66 66 65 65 66 66 67 70 71 72 73 73 73 72 73 71 71 71 72 73 73 73 74 73 73 71 70 70 71 71 72 73 73 73 73 73 72 72 70 73 74 75 75 75 75 75 75 75 75 76 77 78 75 75 76 74 76 76 76 75 73 73 72 70 70 69 67 69 67 66 66 69 70 67 66 67 67 68 67 65
67 68 66 67 65 66 67 67 65 67 69 68 69 70 72 73 73 74 73 70 69 68 69 71 71 70 70 72 72 72 72 71 70 72 72 72 70 70 71 72 72 73 74 74 74 73 74 74 75 75 75 76 76 75 77 77 77 76 75 74 75 77 76 76 76 75 72 72 73 71 72 69 70 68 69 67 68 69 67 66 67 68 69 70 69
65 65 66 68 70 68 65 66 65 66 68 67 68 71 71 72 73 74 73 72 73 69 69 69 69 69 68 70 72 73 73 71 71 72 70 70 71 70 70 70 72 72 72 73 73 73 73 73 72 71 71 73 74 73 74 76 76 76 74 72 72 76 76 76 74 73 70 72 74 73 74 72 71 70 70 68 69 70 69 67 67 68 70 70 70
65 65 66 68 70 72 72 68 65 65 67 69 68 69 69 69 69 71 72 71 70 69 69 70 69 69 69 69 69 71 71 71 70 70 70 70 71 71 69 70 72 72 72 72 72 73 74 72 72 73 71 73 75 74 74 76 76 77 76 75 76 77 77 75 75 75 74 74 75 74 74 75 74 72 70 69 68 70 71 69 69 68 67 70 70
64 65 66 66 67 69 71 69 68 69 67 69 67 67 68 67 67 67 70 70 70 68 69 71 71 69 68 68 68 68 70 70 69 68 69 68 69 70 71 72 70 72 72 71 73 72 73 73 72 73 73 73 75 76 74 74 75 75 75 72 73 76 78 76 76 78 76 74 74 74 73 73 75 75 72 70 69 67 68 67 68 69 69 70 73
63 64 65 67 69 69 69 68 67 67 70 70 68 68 68 69 69 70 70 72 72 70 68 71 71 70 70 68 68 67 68 69 67 66 65 65 66 68 70 71 69 68 71 71 71 71 74 75 73 74 74 74 75 75 74 74 75 75 75 73 71 74 75 74 74 75 74 75 74 73 72 72 71 73 74 71 70 71 70 71 71 71 72 71 73
64 65 65 68 68 68 68 68 66 66 68 70 70 70 69 69 69 69 70 72 72 71 71 72 73 71 69 68 68 67 65 66 66 65 65 65 64 65 68 68 68 67 67 71 72 72 74 76 75 75 75 75 75 73 73 73 74 74 74 74 74 75 74 74 74 73 73 74 73 74 73 72 73 74 74 73 73 72 72 73 73 74 74 74 74
65 65 65 68 68 69 69 69 68 68 69 70 69 70 70 70 70 69 70 71 73 73 72 72 73 74 72 68 66 65 65 65 65 63 64 64 64 63 66 67 66 65 67 69 72 73 75 76 73 74 75 75 75 75 74 73 73 73 73 72 73 74 74 75 74 74 74 74 74 73 73 73 74 73 73 71 71 73 73 72 72 73 73 73 74
66 66 66 67 67 68 69 69 70 71 71 71 71 70 70 69 68 70 70 71 72 73 74 74 74 72 73 71 68 66 65 65 65 64 64 64 64 63 63 66 66 65 67 67 70 71 72 75 75 74 75 75 75 75 75 75 73 72 72 71 72 72 72 73 74 73 74 74 73 74 73 73 73 73 72 72 74 73 73 71 72 73 72 73 74
65 66 67 67 68 68 69 69 69 70 70 70 71 71 70 70 70 69 69 71 73 73 73 73 73 71 72 73 72 71 68 67 66 66 64 65 64 63 64 63 65 65 65 65 68 71 72 73 74 74 73 74 74 74 75 75 74 73 73 74 72 73 72 73 73 72 72 72 71 71 73 73 73 73 72 72 73 73 72 73 73 73 72 71 70
65 65 66 67 67 67 68 69 70 70 70 70 70 71 72 71 71 71 70 71 72 72 73 72 72 71 70 71 72 73 73 71 69 70 69 66 65 65 66 66 67 67 64 64 65 68 70 71 72 72 73 74 75 74 75 75 74 74 73 73 74 73 73 73 72 72 71 71 71 71 70 71 72 74 73 73 72 72 74 73 73 72 72 71 70
63 64 65 65 65 67 67 68 69 69 70 70 70 71 72 73 73 73 72 73 73 73 72 72 73 72 72 73 74 74 74 74 73 73 72 70 69 69 68 69 69 68 65 64 64 65 69 69 70 71 72 71 70 70 71 73 73 73 73 73 73 73 73 73 73 71 71 71 71 70 70 69 72 72 73 75 76 77 73 72 73 73 73 72 72
62 63 64 65 65 66 67 67 68 68 69 69 70 70 71 72 72 73 73 74 74 73 73 72 71 72 74 74 74 74 75 75 75 75 76 74 71 71 70 70 71 70 70 69 68 67 67 68 68 69 70 68 68 67 74 75 75 73 73 70 71 73 73 73 73 72 70 69 68 68 67 69 74 73 75 78 78 76 76 74 74 74 73 73 72
62 64 63 64 65 66 66 67 67 68 69 71 71 71 71 70 71 71 72 73 73 74 74 74 73 74 73 74 75 75 75 76 77 77 77 76 75 73 72 72 72 72 73 72 70 69 67 67 67 67 68 66 65 66 74 68 69 72 72 72 73 73 74 73 72 73 72 70 69 68 68 70 75 77 77 78 78 77 77 76 76 76 76 75 73
62 63 63 64 64 65 65 66 67 68 68 68 68 69 70 70 71 71 72 72 73 73 71 72 73 73 74 74 74 75 75 75 75 76 77 78 76 75 74 74 73 72 74 72 71 71 71 68 67 67 66 66 65 73 67 67 68 68 73 73 70 71 70 71 71 70 70 69 69 67 66 64 66 69 69 75 79 78 76 76 76 76 76 76 75
62 62 63 63 63 63 64 64 65 65 66 66 67 67 68 68 69 70 71 71 72 72 72 73 73 73 75 74 73 73 74 74 75 75 74 74 75 75 75 74 72 72 73 73 73 71 71 70 69 69 67 67 67 65 66 67 67 67 67 73 70 70 70 70 70 72 71 72 72 71 70 68 64 75 72 71 74 75 78 76 76 77 76 74 70
61 61 61 62 62 62 61 62 63 64 65 65 66 66 67 68 68 68 67 68 68 67 68 69 71 72 73 73 73 72 72 73 73 73 73 73 73 73 74 74 73 73 74 73 72 73 71 72 71 70 71 69 70 63 63 64 65 66 66 69 72 70 70 70 71 71 70 71 73 73 73 73 71 72 74 74 74 75 75 76 77 77 76 76 75
60 60 60 61 61 61 62 62 63 63 64 63 64 65 66 66 66 65 66 66 65 65 65 66 67 69 71 72 73 73 72 72 72 72 72 72 72 73 73 73 73 74 74 74 73 72 73 73 70 69 70 67 66 60 61 62 62 64 65 68 71 69 70 70 71 71 73 72 73 74 75 73 74 75 75 77 75 74 75 74 75 74 72 72 72
59 59 59 60 58 60 59 60 61 60 61 62 62 62 63 63 63 64 64 64 64 64 64 65 65 66 66 68 70 71 72 71 72 72 72 72 72 73 73 73 73 74 74 73 73 71 71 72 71 70 68 71 68 58 60 60 61 62 65 70 71 72 71 71 71 72 74 76 76 75 76 75 75 76 71 70 72 74 73 73 74 74 74 72 70
58 57 56 58 58 58 58 59 58 59 59 60 61 60 61 61 61 61 62 61 63 63 63 63 64 64 66 66 68 69 69 70 71 71 71 72 72 72 72 73 72 72 71 71 71 70 72 73 73 73 72 71 67 60 57 57 58 61 65 72 72 72 73 72 72 74 75 74 74 75 75 73 73 75 66 61 65 72 74 73 74 73 72 70 69
55 55 54 54 53 52 52 52 54 55 56 58 58 58 58 59 59 60 60 61 61 62 63 64 64 64 65 65 67 67 68 68 68 67 69 71 72 72 71 72 72 73 74 73 73 73 72 73 73 73 68 66 66 62 55 55 56 58 66 73 74 72 73 73 73 74 74 75 75 75 75 75 75 72 62 61 63 72 75 75 74 73 72 71 71
52 51 50 50 51 52 52 53 52 52 53 55 55 55 54 55 55 54 56 57 58 60 60 61 61 62 63 63 65 66 66 65 66 66 66 67 69 70 71 72 72 73 73 73 73 71 69 69 69 69 68 67 66 64 55 55 55 56 66 75 74 74 74 73 72 73 73 73 75 75 75 73 72 66 58 59 61 68 73 74 73 73 70 70 72
52 52 53 56 57 56 53 51 50 52 51 53 53 54 56 54 53 52 54 56 59 60 60 60 60 60 61 61 63 63 64 64 64 65 67 68 69 69 69 70 71 71 70 70 70 70 68 69 69 67 67 65 64 63 60 54 53 55 57 71 75 73 73 73 73 72 73 72 74 73 69 63 60 58 56 55 56 59 68 70 71 71 70 71 70
53 53 57 55 54 52 51 51 53 54 50 51 52 53 55 56 55 55 54 54 57 59 59 60 60 59 60 61 61 62 61 62 63 64 65 66 68 68 69 68 68 69 70 69 68 68 67 67 68 68 68 67 65 63 60 53 52 53 55 64 73 72 71 73 73 73 72 71 71 73 69 60 57 56 55 53 53 55 59 68 68 69 69 67 65
57 57 56 53 51 53 52 51 53 51 51 52 55 56 57 56 55 54 55 55 56 57 57 58 59 58 59 61 63 63 62 62 63 63 63 64 64 66 69 69 69 69 68 67 66 65 66 65 65 66 66 66 65 64 64 56 52 51 52 55 67 66 64 71 71 69 70 69 70 71 69 64 55 54 52 50 50 52 57 67 72 56 56 59 68
56 56 53 51 52 51 49 50 48 49 49 50 53 56 56 55 55 55 54 56 56 56 57 57 58 57 57 57 60 62 63 63 63 62 62 63 63 64 65 66 67 67 67 66 65 65 64 63 63 64 65 64 64 64 61 62 54 51 50 52 53 59 58 70 70 69 69 69 69 69 68 66 53 50 48 49 50 51 55 66 54 54 56 57 63
52 51 51 51 52 52 51 51 50 52 52 53 55 56 57 56 55 55 54 55 56 57 58 57 57 57 56 56 56 59 60 61 62 62 62 63 65 63 64 64 65 65 66 66 66 65 64 62 62 63 64 64 64 64 61 60 59 53 51 51 52 53 55 64 66 64 66 63 64 63 63 52 49 47 48 50 52 54 61 53 52 54 57 61 67
51 50 52 52 51 52 50 51 52 54 54 55 54 56 57 57 56 57 57 56 55 55 56 56 56 55 56 56 56 57 58 58 59 60 61 60 61 61 61 62 63 63 62 63 62 62 61 61 61 61 63 64 65 64 63 61 60 58 54 53 54 55 55 56 66 60 61 60 59 52 50 50 51 51 51 51 58 63 59 55 56 57 64 68 69
52 53 52 51 50 50 49 50 51 52 52 55 53 54 56 57 56 57 56 56 56 56 55 55 54 55 54 53 53 53 54 56 54 56 58 59 59 58 60 59 59 60 62 62 61 60 60 60 59 60 62 60 61 61 60 61 61 61 60 57 56 57 59 60 61 62 60 57 55 53 53 53 55 57 68 68 65 66 63 60 59 63 68 67 66
53 53 52 49 48 47 49 49 49 50 50 51 53 52 55 56 56 53 55 56 56 56 56 55 55 53 54 54 53 50 49 52 54 52 52 54 57 56 57 57 57 58 60 60 60 60 58 57 57 57 59 59 60 60 60 59 60 60 60 61 64 64 62 62 63 62 62 62 63 62 61 58 57 57 58 60 61 62 64 67 67 67 65 63 65
55 54 53 52 50 49 50 50 52 51 52 51 51 52 54 54 52 52 53 55 55 55 53 54 53 53 53 53 52 51 52 48 51 52 52 53 55 56 55 55 54 54 55 54 54 54 54 55 54 55 57 57 57 56 56 56 58 57 58 58 58 59 60 61 58 58 61 62 63 64 62 65 67 67 65 64 63 65 63 62 62 62 61 63 64
55 55 54 54 54 53 54 54 53 53 53 53 53 52 52 54 54 54 55 55 54 54 54 53 52 52 50 53 51 50 49 51 53 55 54 55 55 55 56 55 53 54 53 53 53 52 53 52 54 56 57 56 56 56 56 48 57 47 54 56 57 56 56 58 58 49 58 63 65 65 64 64 64 62 60 61 60 62 62 62 62 63 60 62 63
55 55 55 55 55 55 55 54 54 54 53 53 53 53 54 52 54 55 55 55 54 52 50 48 47 46 46 48 49 47 50 52 50 53 55 54 54 51 54 55 52 54 51 48 49 52 52 55 55 53 55 54 54 55 46 43 41 41 42 42 43 41 41 49 50 48 55 62 61 57 56 54 54 56 56 58 57 58 59 58 60 60 60 59 61
54 54 55 55 55 55 55 54 53 53 53 53 53 52 54 53 54 54 53 54 54 52 50 48 48 45 47 49 48 48 51 53 53 52 53 53 53 55 45 47 52 52 48 43 43 44 46 49 56 56 55 51 49 45 42 42 42 42 41 41 40 40 40 41 42 57 63 63 57 56 55 56 57 57 57 56 58 57 58 57 57 57 58 59 59